Whiting Fld NAS, FL

10:35 PM CST on November 21, 2019 (GMT -0600)
Whiting Field Naval Air Station (North)

Weather History for KNSE - September, 2019

Change the Weather History Date:

Friday, September 20, 2019

  Actual Average Record
Temperature  
Mean Temperature 78 °F -  
Max Temperature 90 °F 83 °F 95 °F (1997)
Min Temperature 66 °F 66 °F 57 °F (2006)
Cooling Degree Days 12    
Growing Degree Days 28 (Base 50)    
Moisture  
Dew Point 62 °F    
Average Humidity 64    
Maximum Humidity 90    
Minimum Humidity 39    
Precipitation  
Precipitation 0.00 in - - ()
Sea Level Pressure  
Sea Level Pressure 30.10 in    
Wind  
Wind Speed 7 mph (ENE)    
Max Wind Speed 13 mph    
Max Gust Speed 20 mph    
Visibility 10 miles    
Events      
Averages and records for this station are not official NWS values.
T = Trace of Precipitation, MM = Missing Value Source: NWS Daily Summary

Daily Weather History Graph

Daily Weather History Graph

Search for Another Location

Airport or City:

Astronomy

Sep. 20, 2019 Rise Set
Actual Time 6:35 AM CDT 6:47 PM CDT
Civil Twilight 6:11 AM CDT 7:11 PM CDT
Nautical Twilight 5:42 AM CDT 7:39 PM CDT
Astronomical Twilight 5:14 AM CDT 8:07 PM CDT
Moon 11:00 PM CDT (9/20) 12:16 PM CDT (9/20)
Length of Visible Light 13h 00m
Length of Day
12h 12m
Waning Gibbous, 65% of the Moon is Illuminated
Sep 20
Waning Gibbous
Sep 21
Last Quarter
Sep 28
New
Oct 5
First Quarter
Oct 13
Full

Hourly Weather History & Observations

Time (CDT) Temp. Heat Index Dew Point Humidity Pressure Visibility Wind Dir Wind Speed Gust Speed Precip Events Conditions
12:56 AM 70.0 °F - 63.0 °F 78% 30.05 in 10.0 mi ENE 4.6 mph - N/A   Clear
1:56 AM 69.1 °F - 59.0 °F 70% 30.06 in 10.0 mi East 4.6 mph - N/A   Clear
2:56 AM 71.1 °F - 55.9 °F 59% 30.06 in 10.0 mi East 5.8 mph - N/A   Clear
3:56 AM 70.0 °F - 57.9 °F 65% 30.06 in 10.0 mi East 8.1 mph - N/A   Clear
4:56 AM 69.1 °F - 59.0 °F 70% 30.08 in 10.0 mi East 6.9 mph - N/A   Clear
5:56 AM 66.9 °F - 59.0 °F 76% 30.09 in 10.0 mi East 5.8 mph - N/A   Scattered Clouds
6:56 AM 66.0 °F - 60.1 °F 81% 30.12 in 10.0 mi East 5.8 mph - N/A   Scattered Clouds
7:56 AM 70.0 °F - 61.0 °F 73% 30.12 in 10.0 mi ENE 6.9 mph - N/A   Scattered Clouds
8:56 AM 73.9 °F - 61.0 °F 64% 30.13 in 10.0 mi ENE 11.5 mph 17.3 mph N/A   Scattered Clouds
9:56 AM 79.0 °F - 62.1 °F 56% 30.14 in 10.0 mi East 12.7 mph 19.6 mph N/A   Scattered Clouds
10:56 AM 82.9 °F 83.7 °F 62.1 °F 49% 30.14 in 10.0 mi East 10.4 mph 18.4 mph N/A   Scattered Clouds
11:56 AM 87.1 °F 87.5 °F 62.1 °F 43% 30.13 in 10.0 mi East 9.2 mph 17.3 mph N/A   Scattered Clouds
12:56 PM 88.0 °F 87.9 °F 61.0 °F 40% 30.12 in 10.0 mi East 11.5 mph 19.6 mph N/A   Scattered Clouds
1:56 PM 89.1 °F 89.0 °F 61.0 °F 39% 30.10 in 10.0 mi East 9.2 mph 16.1 mph N/A   Scattered Clouds
2:56 PM 89.1 °F 89.0 °F 61.0 °F 39% 30.08 in 10.0 mi East 11.5 mph 16.1 mph N/A   Scattered Clouds
3:56 PM 87.1 °F 86.7 °F 60.1 °F 40% 30.07 in 10.0 mi ESE 9.2 mph - N/A   Scattered Clouds
4:56 PM 86.0 °F 86.1 °F 61.0 °F 43% 30.07 in 10.0 mi Variable 3.5 mph - N/A   Scattered Clouds
5:56 PM 84.0 °F 85.4 °F 64.0 °F 51% 30.06 in 10.0 mi SE 5.8 mph - N/A   Scattered Clouds
6:56 PM 80.1 °F 81.9 °F 64.9 °F 60% 30.08 in 10.0 mi SSE 9.2 mph - N/A   Scattered Clouds
7:56 PM 75.9 °F - 66.0 °F 71% 30.09 in 10.0 mi SE 4.6 mph - N/A   Partly Cloudy
8:56 PM 72.0 °F - 66.0 °F 81% 30.10 in 10.0 mi Calm Calm - N/A   Partly Cloudy
9:56 PM 69.1 °F - 66.0 °F 90% 30.12 in 10.0 mi NNE 3.5 mph - N/A   Clear
10:45 PM 69.1 °F - 66.0 °F 90% 30.16 in 10.0 mi North 4.6 mph - N/A   Clear
10:56 PM 70.0 °F - 66.0 °F 87% 30.12 in 10.0 mi North 4.6 mph - N/A   Clear
11:56 PM 68.0 °F - 64.9 °F 90% 30.12 in 10.0 mi NNE 4.6 mph - N/A   Clear